                ,  0.721,  0.869,  1.017,  1.165,  1.312,  1.460,  1.608,  1.756,  1.904,  2.052,  2.199,  2.347,  2.495,  2.643,  2.791,  2.938,  3.086,  3.234,  3.382,  3.530,  3.677,  3.825,  3.973,  4.121,  4.269,  4.417,  4.564,  4.712,  4.860,  5.008,  5.156,  5.303
1999/07/24 00:00,    2.0,    0.9,   -0.6,   -0.7,   -0.8,   -0.2,    0.5,    1.5,    1.8,    2.0,  999.0,    5.4,    7.0,    7.0,  999.0,  999.0,    8.0,    8.5,  999.0,  999.0,  999.0,  999.0,  999.0,  999.0,  999.0,  999.0,  999.0,  999.0,  999.0,  999.0,  999.0,  999.0
1999/07/24 00:10,    2.7,    1.0,   -0.5,   -1.1,   -0.9,   -0.6,    0.6,    1.4,    2.4,  999.0,  999.0,    5.9,    7.3,    7.5,    7.8,  999.0,    8.8,    9.2,  999.0,    9.7,  999.0,  999.0,  999.0,  999.0,  999.0,  999.0,  999.0,  999.0,  999.0,  999.0,  999.0,  999.0
1999/07/24 00:20,    2.8,    1.2,   -0.2,   -0.6,   -0.5,   -0.8,    0.1,    1.6,    2.9,    3.2,  999.0,    6.5,  999.0,    7.5,    7.6,    7.8,    8.5,    9.1,  999.0,   10.2,   10.3,  999.0,  999.0,  999.0,  999.0,  999.0,  999.0,  999.0,  999.0,  999.0,  999.0,  999.0
1999/07/24 00:30,    2.5,    0.5,   -0.6,   -1.4,   -1.2,   -0.7,    0.2,    1.1,  999.0,    3.6,    4.9,    6.8,    7.2,    6.9,    7.1,    7.5,    8.3,    9.0,  999.0,    9.9,   10.5,  999.0,  999.0,  999.0,  999.0,  999.0,   11.2,   10.7,  999.0,  999.0,  999.0,  999.0
1999/07/24 00:40,    2.2,    0.7,   -1.2,   -1.0,   -0.9,   -0.5,    0.7,    1.7,    2.8,    3.0,  999.0,    6.1,    6.6,  999.0,  999.0,  999.0,    8.0,    8.4,  999.0,    9.5,  999.0,  999.0,  999.0,  999.0,  999.0,  999.0,  999.0,  999.0,  999.0,  999.0,  999.0,  999.0
1999/07/24 00:50,    1.9,   -0.2,  999.0,   -1.7,   -1.4,   -0.1,    0.6,    1.3,    1.6,    3.1,    4.5,    5.3,    6.0,    6.5,  999.0,    6.1,    7.7,    8.2,  999.0,    8.8,  999.0,    9.9,  999.0,  999.0,  999.0,  999.0,  999.0,  999.0,  999.0,  999.0,  999.0,  999.0
1999/07/24 01:00,    2.3,    0.7,   -1.7,   -1.0,   -1.0,    0.0,    0.3,    0.5,    1.1,    3.1,  999.0,    4.8,    5.6,    6.2,  999.0,    5.8,    7.2,    7.6,  999.0,    8.7,    9.1,    9.2,    9.7,    9.7,  999.0,  999.0,  999.0,  999.0,  999.0,  999.0,  999.0,  999.0
1999/07/24 01:10,    2.8,    0.5,   -0.8,   -0.8,   -0.1,   -0.1,    0.1,    0.1,    0.8,    2.9,    4.8,    6.1,    6.7,    6.6,  999.0,  999.0,    7.9,    8.1,  999.0,    9.2,    9.8,  999.0,  999.0,   11.1,  999.0,  999.0,  999.0,   10.5,  999.0,  999.0,  999.0,  999.0
1999/07/24 01:20,    3.1,    1.1,   -0.9,   -1.0,   -0.1,    0.5,    0.7,    0.5,    1.9,    3.3,  999.0,    5.0,    5.6,    6.2,    6.0,    7.0,    7.4,  999.0,    7.7,    8.4,    8.8,  999.0,  999.0,    9.7,    9.7,  999.0,  999.0,    9.4,  999.0,  999.0,  999.0,  999.0
1999/07/24 01:30,    2.5,    0.5,   -1.1,   -0.9,   -0.1,    0.1,    0.3,    0.7,    2.1,    3.3,    4.6,    4.8,    4.9,    6.5,  999.0,    7.7,    7.4,    8.1,    7.6,    8.4,  999.0,  999.0,  999.0,    8.8,  999.0,  999.0,  999.0,    7.9,  999.0,  999.0,  999.0,  999.0
1999/07/24 01:40,    2.3,    1.6,   -1.0,   -1.2,   -0.5,    0.6,    0.5,    1.0,    2.1,    2.9,    4.4,    5.8,    6.2,    5.7,    6.6,    6.0,  999.0,    6.4,    7.0,  999.0,    7.6,    8.5,  999.0,  999.0,  999.0,  999.0,  999.0,  999.0,    9.1,  999.0,  999.0,  999.0
1999/07/24 01:50,    2.5,    2.1,    0.1,   -1.4,   -1.2,   -0.3,   -0.0,    1.4,    2.6,    4.1,    5.3,    5.8,    5.9,    6.4,    6.5,  999.0,    6.8,    7.2,    7.2,    7.6,  999.0,    8.7,  999.0,    9.3,  999.0,    9.5,  999.0,  999.0,    9.1,  999.0,  999.0,  999.0
1999/07/24 02:00,    2.7,    2.3,    0.7,   -0.3,   -0.6,    0.3,    1.0,    1.3,    2.9,    5.4,    6.6,    7.2,    6.0,  999.0,    7.5,  999.0,  999.0,    6.8,    6.1,    6.6,    7.7,    6.7,    7.9,  999.0,  999.0,  999.0,  999.0,    8.8,  999.0,  999.0,  999.0,  999.0
1999/07/24 02:10,    2.6,    1.9,    1.2,   -0.5,   -1.4,   -0.3,    0.8,    2.1,    3.3,    4.8,    5.9,    5.9,    6.5,    7.1,  999.0,  999.0,  999.0,    7.4,    8.1,    7.7,    8.4,    8.1,    8.7,    8.8,  999.0,  999.0,  999.0,  999.0,  999.0,  999.0,  999.0,  999.0
1999/07/24 02:20,    4.1,    2.1,    1.3,    0.1,   -1.0,   -0.6,    0.2,    1.7,    3.0,    4.8,    6.0,    6.0,    6.5,    6.4,  999.0,  999.0,    8.1,    8.1,    7.9,    8.4,    8.9,    8.7,    8.4,    8.7,  999.0,  999.0,  999.0,   10.0,  999.0,  999.0,  999.0,  999.0
1999/07/24 02:30,    5.3,    2.3,    2.0,    0.8,    0.3,    0.0,    0.7,    1.5,    2.2,    4.0,    5.3,    6.7,    6.7,    6.5,  999.0,    4.9,    7.4,    7.6,    8.0,    7.5,    7.6,    8.0,    8.0,  999.0,  999.0,  999.0,  999.0,    9.4,    8.8,  999.0,  999.0,  999.0
1999/07/24 02:40,    5.2,    2.8,    2.1,    1.1,   -0.0,   -0.4,    0.5,    0.8,    2.3,    4.4,    5.4,    5.4,    6.2,    6.8,  999.0,  999.0,  999.0,    7.1,  999.0,    7.6,    8.1,    8.2,    7.7,  999.0,  999.0,   10.0,  999.0,   10.5,   10.0,  999.0,  999.0,  999.0
1999/07/24 02:50,    3.8,  999.0,    2.3,    1.0,   -1.1,   -0.5,    0.5,    1.1,    3.3,    4.5,    5.8,    6.0,    7.1,    6.7,    6.3,  999.0,  999.0,    7.0,    7.2,    7.9,    8.4,    8.6,    8.7,  999.0,  999.0,  999.0,  999.0,  999.0,   10.1,  999.0,  999.0,  999.0
1999/07/24 03:00,    5.0,    2.9,    2.0,    0.6,   -0.8,   -0.3,    0.4,    0.9,    2.4,    4.1,    6.0,    5.8,    6.9,    7.0,    6.5,  999.0,    7.4,    7.4,    8.0,    8.1,    8.6,    8.7,  999.0,    8.5,  999.0,  999.0,  999.0,  999.0,    9.7,  999.0,  999.0,  999.0
1999/07/24 03:10,    5.3,  999.0,    1.6,    1.5,   -0.7,   -1.1,    0.1,    1.0,    2.8,    5.5,    5.9,    5.9,    6.5,    7.0,    5.9,  999.0,    6.4,    6.8,  999.0,    7.6,  999.0,    8.5,  999.0,    9.1,  999.0,  999.0,  999.0,  999.0,    9.2,  999.0,  999.0,  999.0
1999/07/24 03:20,    4.0,  999.0,    0.6,    0.1,   -1.2,   -0.0,    1.0,    1.5,    3.6,    5.5,    6.2,    7.4,    7.6,    7.0,    6.6,  999.0,    7.0,  999.0,    8.6,   10.2,  999.0,   10.9,   11.0,   10.2,  999.0,  999.0,  999.0,  999.0,  999.0,  999.0,  999.0,  999.0
1999/07/24 03:30,    5.6,    2.4,    1.4,    0.5,   -0.7,   -0.0,  999.0,    1.5,    4.4,    5.7,    6.6,    7.5,    7.4,  999.0,    6.4,  999.0,    6.2,    6.8,    6.8,    7.7,  999.0,  999.0,    9.7,  999.0,  999.0,  999.0,  999.0,  999.0,  999.0,  999.0,  999.0,  999.0
1999/07/24 03:40,    8.7,    2.8,    1.6,    0.2,  999.0,  999.0,  999.0,    2.7,  999.0,  999.0,    6.2,    6.8,    7.6,  999.0,    6.6,  999.0,    6.5,    6.6,    7.1,    8.4,    8.6,  999.0,    8.8,   10.0,    8.9,  999.0,  999.0,  999.0,  999.0,  999.0,  999.0,  999.0
1999/07/24 03:50,    6.8,    3.0,  999.0,   -0.2,   -0.9,    1.1,  999.0,    3.4,    4.7,    5.3,    6.0,    6.8,    7.2,    7.4,    6.5,  999.0,    6.1,    7.0,    7.6,    7.7,    8.0,    8.8,    8.4,  999.0,    8.9,  999.0,  999.0,  999.0,  999.0,  999.0,  999.0,  999.0
1999/07/24 04:00,    6.3,    3.5,    2.1,    0.1,  999.0,  999.0,    2.0,    3.9,  999.0,    5.3,    5.7,    7.0,    7.6,    6.6,    8.0,  999.0,    6.8,    7.7,    7.6,    8.0,    8.3,    7.9,    8.4,  999.0,  999.0,  999.0,  999.0,  999.0,    9.0,  999.0,  999.0,  999.0
1999/07/24 04:10,    7.5,  999.0,    1.7,    0.2,   -0.5,    1.2,    2.5,  999.0,    5.1,    5.6,    6.1,    7.1,    7.4,    6.3,    7.0,    6.4,    6.0,    6.7,    7.1,    7.2,    7.0,    7.4,    7.9,  999.0,  999.0,  999.0,  999.0,  999.0,    8.2,  999.0,  999.0,  999.0
1999/07/24 04:20,    6.9,  999.0,    2.3,    1.9,  999.0,    1.4,  999.0,  999.0,  999.0,    5.8,    5.7,    6.2,    6.8,  999.0,  999.0,    6.9,    6.6,    6.7,    7.0,    7.3,    7.3,    7.6,  999.0,  999.0,  999.0,  999.0,  999.0,  999.0,    8.6,  999.0,  999.0,  999.0
1999/07/24 04:30,    6.8,    3.8,    2.4,    1.7,  999.0,  999.0,    4.4,  999.0,    5.2,    6.2,    6.7,    7.4,    7.5,  999.0,    7.7,    7.5,    7.4,    7.5,    7.5,    8.2,    8.5,    8.1,  999.0,  999.0,    7.6,  999.0,  999.0,    8.8,  999.0,  999.0,  999.0,  999.0
1999/07/24 04:40,    6.7,    3.6,    2.4,    2.1,    2.6,    3.2,    3.3,  999.0,    4.2,    4.8,    5.5,    6.2,    6.8,  999.0,  999.0,    7.4,    6.9,    7.2,    8.1,    8.0,  999.0,  999.0,  999.0,  999.0,    9.2,    9.4,  999.0,  999.0,  999.0,  999.0,  999.0,  999.0
1999/07/24 04:50,    7.6,    6.6,    3.1,  999.0,  999.0,  999.0,  999.0,  999.0,    4.7,    5.9,    6.0,    6.4,  999.0,    6.2,    6.4,    6.5,    6.0,    6.5,    6.6,    7.8,  999.0,  999.0,  999.0,  999.0,    9.3,  999.0,  999.0,    9.3,  999.0,  999.0,  999.0,  999.0
1999/07/24 05:00,    8.2,    6.8,    3.3,    3.4,    4.5,    4.6,  999.0,    2.1,    3.8,    5.1,    5.3,    5.7,  999.0,    6.1,    6.3,    5.9,    4.9,    5.4,    5.5,    6.1,    6.4,  999.0,  999.0,  999.0,    8.4,  999.0,  999.0,  999.0,    6.0,  999.0,  999.0,  999.0
1999/07/24 05:10,    8.1,    6.3,    3.5,    3.3,    3.6,    3.9,    3.7,  999.0,    3.5,    5.3,  999.0,  999.0,  999.0,  999.0,    6.2,    5.5,    5.1,    5.5,    5.1,    6.5,    7.0,  999.0,  999.0,  999.0,    7.4,    6.5,    6.6,  999.0,    6.9,  999.0,  999.0,  999.0
1999/07/24 05:20,    7.6,    8.2,    4.0,    3.2,    5.4,    6.3,    5.2,  999.0,  999.0,    6.5,    6.2,    6.8,  999.0,    6.9,    6.6,    6.2,    6.1,    6.6,    6.4,    6.8,    7.1,  999.0,    8.0,    8.6,    8.5,  999.0,  999.0,  999.0,  999.0,  999.0,  999.0,  999.0
1999/07/24 05:30,  999.0,    9.1,  999.0,    4.7,  999.0,    6.9,  999.0,  999.0,    6.8,    8.0,    7.8,    7.4,    6.4,    6.4,    6.7,    5.4,    6.0,    6.6,    7.0,    7.7,    8.3,  999.0,  999.0,    7.8,    7.4,  999.0,  999.0,  999.0,  999.0,  999.0,  999.0,  999.0
1999/07/24 05:40,    6.5,    7.9,    6.5,    4.5,    4.3,    5.7,    5.2,  999.0,    5.7,    6.7,    6.9,    7.4,    6.3,    6.6,    6.6,    6.1,    5.9,    6.6,    7.1,    7.5,    7.2,  999.0,    8.5,    8.3,    8.4,  999.0,  999.0,  999.0,  999.0,  999.0,  999.0,  999.0
1999/07/24 05:50,    8.8,    8.1,    5.7,  999.0,    6.0,    6.5,  999.0,    5.6,    7.1,    8.5,    8.8,    8.4,    8.0,    7.7,    7.6,    6.4,    6.5,    7.1,    7.1,    7.6,  999.0,  999.0,  999.0,    8.8,    8.7,  999.0,    8.0,    8.8,    8.6,  999.0,  999.0,  999.0
1999/07/24 06:00,   10.0,    9.1,  999.0,    7.5,    7.3,    5.8,    5.3,    4.6,    5.9,    7.0,    7.7,    7.7,    7.4,    7.2,    6.5,    5.7,    6.1,    6.7,    7.4,    7.3,  999.0,    8.3,    8.7,    8.2,    7.6,  999.0,    6.8,  999.0,    7.1,  999.0,  999.0,  999.0
1999/07/24 06:10,    9.5,    9.5,    9.8,    9.6,    7.7,    7.6,    5.8,    4.5,    5.1,    6.4,    7.6,    7.4,  999.0,  999.0,  999.0,    6.0,    6.6,    6.7,    7.7,  999.0,  999.0,  999.0,  999.0,    9.1,    8.7,  999.0,    7.7,    8.0,  999.0,  999.0,  999.0,  999.0
1999/07/24 06:20,    9.4,    9.6,    9.6,    8.4,    7.6,    6.1,    5.5,    4.7,    5.7,    6.4,    7.0,    6.6,  999.0,  999.0,  999.0,    6.8,    7.8,    8.4,    8.8,  999.0,  999.0,  999.0,  999.0,  999.0,  999.0,    8.0,    8.6,    8.0,    7.7,    6.7,  999.0,  999.0
1999/07/24 06:30,   10.1,   10.3,    9.8,    8.9,    8.2,    6.1,    5.3,    4.8,    5.3,    6.0,    7.2,    6.1,    6.0,    6.0,    6.2,    6.6,    6.9,    7.5,    7.9,    8.3,    7.0,    7.3,    8.2,    8.2,    8.5,    7.9,  999.0,    7.3,    7.3,    6.0,  999.0,  999.0
1999/07/24 06:40,   10.2,   10.5,   10.7,    9.7,    7.9,    5.9,    4.8,    5.2,    5.4,    7.2,    7.9,    6.5,  999.0,    6.6,    6.0,    6.0,  999.0,  999.0,  999.0,    8.0,  999.0,  999.0,  999.0,  999.0,    6.5,    5.7,  999.0,    6.3,    6.1,  999.0,  999.0,  999.0
1999/07/24 06:50,   10.8,   10.8,   10.4,   10.2,    9.1,    7.9,    6.3,  999.0,    5.2,    7.9,    7.2,  999.0,    6.4,    6.1,    5.5,    5.7,    5.6,    7.0,  999.0,    7.3,  999.0,  999.0,  999.0,    5.9,    5.3,    5.1,  999.0,    5.4,    5.7,  999.0,  999.0,  999.0
1999/07/24 07:00,   11.0,   10.8,   10.3,    9.6,    9.2,    8.8,    6.3,    5.3,    5.5,    6.7,    6.9,    7.3,    6.3,    6.5,    7.1,    6.4,  999.0,  999.0,  999.0,  999.0,  999.0,  999.0,    6.9,    7.2,    6.1,    6.4,  999.0,    6.7,    6.5,  999.0,  999.0,  999.0
1999/07/24 07:10,   10.9,   11.7,   11.0,    9.5,    8.8,  999.0,    6.7,    6.1,    7.0,    7.1,    7.7,    8.3,    8.6,    8.7,    7.8,    7.7,  999.0,    7.3,    7.7,    6.5,  999.0,    7.0,  999.0,    7.2,    5.5,    5.6,  999.0,    6.1,    6.4,    7.0,  999.0,  999.0
1999/07/24 07:20,    9.7,   11.5,   11.8,   10.4,    8.7,  999.0,    6.4,    5.9,    6.6,  999.0,    7.1,    8.0,    7.7,    8.6,    7.9,    7.9,  999.0,    7.1,    7.1,    6.1,  999.0,    5.8,  999.0,    4.7,    4.6,    5.0,  999.0,    5.0,    5.4,  999.0,  999.0,  999.0
1999/07/24 07:30,    8.7,   10.6,   11.2,   10.1,    8.1,    7.9,    7.0,    7.0,    6.9,    7.0,    7.9,    7.6,    8.2,    7.6,    7.1,    7.5,    7.1,    7.0,    6.9,    6.0,    6.6,    7.1,    7.4,    6.5,    6.0,  999.0,  999.0,    8.6,  999.0,  999.0,  999.0,  999.0
1999/07/24 07:40,    7.3,   10.4,   11.5,    9.9,    7.4,    6.6,    7.8,  999.0,  999.0,    6.6,    6.3,    6.6,  999.0,    5.9,    6.0,  999.0,    7.0,    8.0,    7.6,    7.6,    7.7,    8.2,  999.0,    6.8,  999.0,  999.0,  999.0,    7.4,    5.9,  999.0,  999.0,  999.0
1999/07/24 07:50,    8.4,   10.9,   11.7,    9.3,    8.3,    8.2,    8.4,    7.8,    7.2,    7.1,    5.9,    6.4,    6.6,    6.4,    5.8,    6.0,    6.6,    7.4,    7.6,    7.4,    6.9,    7.6,  999.0,    5.9,  999.0,  999.0,    6.3,    7.0,    7.7,    7.7,  999.0,  999.0
1999/07/24 08:00,    5.7,   10.1,   12.0,    9.0,    8.0,    8.6,    8.2,    7.3,    6.3,    5.6,    5.1,    5.6,    5.3,    5.4,    5.7,    6.6,    7.3,    8.0,    7.7,    7.3,    7.2,    7.7,    7.1,    6.7,    6.1,    6.0,    6.6,    6.4,    6.4,  999.0,  999.0,  999.0
1999/07/24 08:10,    7.5,   10.6,   11.1,    9.7,    8.1,    8.9,    8.3,    7.6,    6.5,    5.9,    5.8,  999.0,    6.2,    5.3,    5.9,    6.8,    7.6,    7.3,    6.7,    6.3,    6.1,    6.7,    5.8,    5.4,  999.0,    5.5,    6.2,    6.6,    6.7,  999.0,  999.0,  999.0
1999/07/24 08:20,    7.5,   10.3,   12.2,   11.2,    9.3,    8.9,    8.2,    7.0,    6.6,    6.2,    5.7,    4.8,    4.6,    4.6,    5.5,    6.2,    6.7,    6.6,    5.9,    5.8,    5.8,    6.2,    6.2,  999.0,    5.2,    6.0,    6.7,    6.8,  999.0,  999.0,  999.0,  999.0
1999/07/24 08:30,    6.4,    9.3,   10.5,   11.1,   10.0,    9.4,    8.5,    7.8,    7.0,    6.4,    6.4,    5.4,    5.1,    5.3,    5.6,    6.6,    7.2,    7.2,    6.8,    6.3,    6.1,  999.0,    6.4,  999.0,    6.7,    7.3,    8.8,    9.0,    8.3,  999.0,  999.0,  999.0
1999/07/24 08:40,    4.9,    9.5,   10.9,    9.4,    9.3,    8.5,    7.8,    7.4,    6.4,    5.7,    5.6,    5.0,    4.6,    5.2,    5.6,    6.7,    7.2,    7.0,    6.7,    5.9,    6.1,    6.7,    6.2,    7.5,    7.0,    8.2,    9.5,    9.8,    9.6,  999.0,  999.0,  999.0
1999/07/24 08:50,  999.0,    6.9,    9.6,   10.0,    8.8,    8.5,    8.7,    8.0,    7.0,    7.3,    7.2,    6.5,    5.4,    5.4,    5.8,    6.6,    7.3,    7.0,    6.8,    6.9,    7.0,    7.4,  999.0,  999.0,    8.3,    9.5,  999.0,    9.0,  999.0,  999.0,  999.0,  999.0
1999/07/24 09:00,  999.0,    7.3,    9.9,   10.2,   10.5,    9.2,    8.5,    7.4,    7.7,    7.5,    6.9,    6.6,    6.3,    5.9,    6.0,    6.8,    6.7,    6.5,  999.0,    6.1,    6.9,    8.1,    8.4,    9.1,    8.6,    9.5,  999.0,  999.0,  999.0,  999.0,  999.0,  999.0
1999/07/24 09:10,    2.7,    7.7,    9.4,   10.9,   10.7,   10.6,  999.0,    8.8,    8.8,    9.2,    7.9,    7.1,    7.0,    6.3,    6.4,    7.3,    7.1,    7.4,    7.0,  999.0,  999.0,  999.0,    9.2,    9.8,    8.3,  999.0,  999.0,  999.0,    9.2,  999.0,  999.0,  999.0
1999/07/24 09:20,    4.8,    7.2,    7.7,   11.2,   11.0,    9.6,    9.0,    8.9,    8.9,    8.9,    7.7,    7.2,    7.4,    7.0,    7.8,    7.7,    8.1,    8.1,  999.0,  999.0,  999.0,    9.6,   10.2,    9.1,    8.9,  999.0,  999.0,  999.0,  999.0,  999.0,  999.0,  999.0
1999/07/24 09:30,  999.0,    4.1,    4.6,    9.3,    9.4,    8.4,    8.7,    9.1,    9.1,    8.4,    7.2,    6.2,    6.9,    6.7,    7.1,    6.4,    7.1,    7.5,  999.0,  999.0,  999.0,    8.3,  999.0,  999.0,  999.0,  999.0,  999.0,  999.0,    8.4,    8.1,  999.0,  999.0
1999/07/24 09:40,    4.5,    4.6,    5.7,    8.6,    9.7,    9.3,   10.4,    9.8,    9.7,    8.8,    7.7,    6.4,    7.2,    8.0,  999.0,  999.0,  999.0,    7.1,  999.0,  999.0,    8.0,  999.0,  999.0,  999.0,  999.0,  999.0,  999.0,  999.0,  999.0,  999.0,    8.8,  999.0
1999/07/24 09:50,  999.0,  999.0,    5.4,    7.0,    8.0,    8.8,    9.6,    8.8,    9.2,    8.0,    7.8,    6.3,    6.6,    7.4,  999.0,  999.0,  999.0,    6.4,    6.2,  999.0,    7.7,  999.0,  999.0,  999.0,  999.0,  999.0,  999.0,  999.0,  999.0,  999.0,  999.0,  999.0
1999/07/24 10:00,    3.5,    4.6,    5.1,    5.9,    7.0,    7.8,  999.0,    7.9,    7.5,    8.3,    6.5,    5.7,    6.4,    7.3,  999.0,  999.0,    5.9,  999.0,    6.5,  999.0,    7.6,    8.3,  999.0,  999.0,  999.0,  999.0,  999.0,  999.0,  999.0,  999.0,  999.0,  999.0
1999/07/24 10:10,  999.0,    2.4,    3.2,    3.4,    7.6,    8.5,    7.8,    9.0,    8.6,    7.4,    6.6,    6.0,    6.7,    6.6,    7.1,  999.0,    5.7,    6.0,    5.9,  999.0,    5.7,    5.8,  999.0,  999.0,  999.0,  999.0,  999.0,  999.0,  999.0,  999.0,  999.0,  999.0
1999/07/24 10:20,  999.0,  999.0,    2.8,    3.2,    5.1,    6.6,    5.7,    7.6,    7.6,    6.9,    6.2,    5.2,    6.7,    6.8,    7.4,  999.0,    6.2,  999.0,  999.0,  999.0,  999.0,  999.0,  999.0,  999.0,  999.0,    6.4,  999.0,  999.0,    8.0,    8.7,  999.0,    8.6
1999/07/24 10:30,   -1.4,    1.6,    3.4,    4.0,    2.6,    8.0,    7.5,    8.2,    8.6,    7.6,    6.5,    7.4,    8.2,    7.7,    7.3,  999.0,    7.0,  999.0,  999.0,  999.0,  999.0,    7.3,  999.0,  999.0,  999.0,  999.0,    7.0,  999.0,  999.0,  999.0,    8.2,    7.4
1999/07/24 10:40,  999.0,    0.4,    4.0,    5.0,    6.3,    7.3,    8.3,  999.0,    9.3,    9.0,    7.7,    7.4,    7.6,    7.9,    8.2,    8.0,    7.8,  999.0,  999.0,  999.0,  999.0,    7.7,  999.0,  999.0,  999.0,  999.0,  999.0,  999.0,  999.0,  999.0,  999.0,  999.0
1999/07/24 10:50,    1.2,   -0.1,    2.1,    3.4,    5.4,    6.2,    5.7,  999.0,    9.5,    8.2,    7.1,    7.1,    7.3,    7.2,    8.1,    8.4,    7.4,    7.5,  999.0,  999.0,  999.0,  999.0,  999.0,  999.0,  999.0,  999.0,  999.0,  999.0,  999.0,  999.0,  999.0,  999.0
1999/07/24 11:00,  999.0,  999.0,  999.0,    3.2,    1.3,    7.4,    5.8,    7.5,  999.0,   10.0,    8.8,    7.2,    7.5,  999.0,    8.9,    8.7,    8.4,    8.7,  999.0,  999.0,  999.0,  999.0,  999.0,  999.0,  999.0,  999.0,  999.0,  999.0,  999.0,  999.0,  999.0,  999.0
1999/07/24 11:10,  999.0,  999.0,    1.8,    3.0,    4.7,    6.1,  999.0,  999.0,  999.0,   10.6,    8.4,    7.5,    7.0,  999.0,    8.8,    8.2,    7.7,    7.6,  999.0,  999.0,  999.0,  999.0,  999.0,  999.0,  999.0,  999.0,  999.0,  999.0,  999.0,  999.0,  999.0,  999.0
1999/07/24 11:20,   -2.9,    0.5,   -2.1,    0.4,    0.5,    4.5,    6.3,  999.0,  999.0,   10.2,   11.1,    8.5,    8.1,    8.6,    9.2,    8.7,    8.5,  999.0,  999.0,  999.0,  999.0,  999.0,  999.0,  999.0,  999.0,  999.0,  999.0,  999.0,  999.0,  999.0,  999.0,  999.0
1999/07/24 11:30,    4.1,    3.0,    2.3,    3.6,    0.6,    4.2,    6.5,    8.2,    7.4,  999.0,    8.3,    8.5,    8.7,    9.2,   10.2,    9.5,  999.0,  999.0,  999.0,  999.0,  999.0,  999.0,  999.0,  999.0,  999.0,  999.0,  999.0,  999.0,  999.0,  999.0,  999.0,  999.0
1999/07/24 11:40,   -0.1,   -1.0,    0.4,    1.2,    1.6,    5.1,    7.5,    7.8,  999.0,  999.0,    7.8,    8.2,    8.3,    9.0,    9.0,  999.0,    8.1,  999.0,  999.0,  999.0,  999.0,  999.0,  999.0,  999.0,  999.0,  999.0,  999.0,  999.0,  999.0,  999.0,  999.0,  999.0
1999/07/24 11:50,  999.0,    0.5,    0.6,  999.0,    1.0,    1.9,    8.1,    4.5,    7.3,  999.0,    8.4,    8.3,    8.2,    8.3,    9.1,  999.0,    7.3,    6.8,  999.0,  999.0,  999.0,  999.0,  999.0,  999.0,  999.0,  999.0,  999.0,  999.0,  999.0,  999.0,  999.0,  999.0
1999/07/24 12:00,  999.0,    2.3,    2.8,    3.4,    5.2,    5.2,    4.3,    3.5,    6.2,    8.8,  999.0,    9.4,    9.8,    9.8,  999.0,  999.0,    8.4,    8.8,  999.0,  999.0,    9.8,   10.3,  999.0,  999.0,  999.0,  999.0,  999.0,  999.0,  999.0,  999.0,  999.0,  999.0
1999/07/24 12:10,    2.7,    5.0,    4.9,    3.4,    4.7,    5.2,    7.3,    7.8,    8.0,    6.5,    7.9,    8.5,  999.0,    8.9,    9.1,  999.0,  999.0,    9.5,  999.0,  999.0,  999.0,  999.0,  999.0,  999.0,  999.0,  999.0,  999.0,  999.0,  999.0,  999.0,  999.0,  999.0
1999/07/24 12:20,  999.0,    5.7,    2.5,    4.4,    1.9,    3.0,    6.3,    5.8,    4.5,    6.6,    3.1,    5.4,  999.0,    8.7,    8.1,  999.0,    9.4,   10.7,  999.0,   11.7,  999.0,  999.0,  999.0,  999.0,  999.0,  999.0,  999.0,  999.0,  999.0,  999.0,  999.0,  999.0
1999/07/24 12:30,  999.0,   -1.7,    1.2,    2.2,    4.3,    5.0,    4.4,    5.0,    6.1,    5.7,    7.5,    8.0,    9.2,    9.3,    9.4,    9.5,    8.8,    7.9,  999.0,    9.5,  999.0,  999.0,  999.0,  999.0,  999.0,  999.0,  999.0,    0.2,  999.0,    0.5,  999.0,  999.0
1999/07/24 12:40,  999.0,    5.1,  999.0,    5.5,    3.1,    3.1,    4.7,    6.3,    7.8,    8.9,    9.5,   10.0,   10.1,   10.2,   10.3,   10.1,    9.8,    2.2,    7.5,  999.0,  999.0,  999.0,  999.0,    0.4,  999.0,    0.7,    4.4,  999.0,  999.0,    0.1,   -0.9,  999.0
1999/07/24 12:50,  999.0,    5.0,    1.9,    2.5,    4.5,    4.0,    5.0,    7.3,    6.6,    8.8,    8.8,    9.6,    8.8,    8.5,    8.8,    8.5,    7.7,    7.6,    8.3,  999.0,    0.5,  999.0,  999.0,  999.0,  999.0,    0.8,    0.2,    0.6,    0.2,    0.5,   -0.1,  999.0
1999/07/24 13:00,  999.0,    2.8,    1.9,    0.4,    2.6,    1.9,    5.2,    4.5,    6.9,    7.8,    8.9,    9.6,    9.9,    9.8,    9.8,   10.0,   10.0,    0.4,    8.9,  999.0,  999.0,  999.0,    0.1,  999.0,    0.5,  999.0,    0.9,    1.1,  999.0,    1.1,  999.0,  999.0
1999/07/24 13:10,    3.6,    3.0,    3.8,    3.3,    2.4,    2.6,    4.1,    4.5,    4.7,    5.5,    5.4,    6.8,    8.1,    8.5,    9.8,   10.3,   10.3,  999.0,  999.0,  999.0,  999.0,    0.2,  999.0,   -0.8,  999.0,   -0.1,  999.0,    0.1,   -0.7,  999.0,  999.0,  999.0
1999/07/24 13:20,    5.6,    2.9,    2.6,    4.2,    4.8,    5.0,    5.0,    4.7,    5.5,    5.9,    6.2,    7.5,    8.6,    9.9,    9.4,   10.0,   10.0,  999.0,  999.0,   -0.1,  999.0,  999.0,   -0.3,  999.0,  999.0,    0.0,    0.4,   -0.1,  999.0,   -1.3,    1.7,  999.0
1999/07/24 13:30,    2.5,    4.2,    2.7,    1.7,    2.3,    3.0,    4.1,    4.6,    5.2,    6.3,    7.0,    8.2,    8.8,   10.1,    9.4,    9.8,    9.4,   10.8,    0.0,  999.0,    0.4,    0.4,  999.0,  999.0,  999.0,   -0.0,    0.5,   -0.4,   -0.6,   -0.7,    0.5,   -0.6
1999/07/24 13:40,    4.9,    3.6,    2.1,    3.4,    3.5,    4.2,    3.8,    4.4,    5.4,    6.6,    8.0,    9.3,   10.4,   11.1,   10.7,   10.8,    9.6,  999.0,    0.2,  999.0,    2.9,   -1.6,    0.9,   -0.7,   -0.3,  999.0,  999.0,  999.0,  999.0,   -0.5,  999.0,  999.0
1999/07/24 13:50,    1.3,    3.4,    3.0,    1.7,    1.8,    2.6,    3.0,    4.7,    4.3,    4.8,    6.5,    7.4,    8.2,    9.0,    9.4,    8.6,    8.4,    8.2,  999.0,  999.0,  999.0,    9.0,  999.0,    6.9,  999.0,  999.0,   -0.5,   -0.1,   -1.1,  999.0,   -0.6,  999.0
1999/07/24 14:00,  999.0,    2.6,    0.4,    2.1,    1.8,    3.4,    4.5,    3.5,  999.0,  999.0,  999.0,    7.6,    9.3,    9.3,    8.5,    8.6,    8.8,    8.1,    0.0,  999.0,  999.0,  999.0,  999.0,    6.5,    0.3,  999.0,  999.0,  999.0,    0.1,    0.3,  999.0,    0.2
1999/07/24 14:10,  999.0,  999.0,   -0.3,    0.7,    3.2,    3.0,    3.3,    4.0,    2.9,    3.3,    3.4,    4.5,    4.2,    3.5,    3.8,    7.3,  999.0,    4.9,    7.8,    8.4,    7.7,    6.3,    6.0,    6.6,    3.7,  999.0,  999.0,  999.0,  999.0,    0.0,    1.1,    0.1
1999/07/24 14:20,   -0.0,   -2.7,   -3.2,    4.3,    2.3,    3.0,    3.5,    6.4,    2.4,    4.0,    1.9,    4.8,    6.2,    6.6,    7.7,    8.1,    9.3,    9.3,  999.0,    9.8,    6.5,    7.8,    7.7,  999.0,  999.0,  999.0,  999.0,   -0.6,  999.0,   -0.2,  999.0,    0.3
1999/07/24 14:30,  999.0,  999.0,    1.9,    4.6,    6.1,    2.6,  999.0,  999.0,    2.7,    7.7,    3.4,    2.1,    5.4,   10.2,    7.3,    6.0,  999.0,  999.0,  999.0,   10.9,    9.0,  999.0,  999.0,  999.0,  999.0,    0.8,    0.4,   -0.2,  999.0,  999.0,  999.0,  999.0
1999/07/24 14:40,   -1.5,    0.7,    1.5,    4.0,    3.5,    4.0,    4.9,    6.4,    8.8,    7.9,    5.1,    6.3,    6.0,    8.8,    7.2,    9.0,  999.0,  999.0,    6.3,    7.4,    8.4,    6.7,    1.0,    7.3,    3.8,    2.8,  999.0,   -0.1,   -0.4,    0.5,    0.6,    0.4
1999/07/24 14:50,   -0.1,    0.4,    2.6,    4.8,    5.9,    6.7,    7.7,    6.1,    6.3,    4.5,    3.1,    4.8,    7.7,    9.1,    5.6,    7.7,    8.1,    7.0,    6.4,  999.0,    9.3,   10.2,    5.6,    7.6,    3.9,    0.5,    0.1,   -0.9,    0.5,  999.0,    1.0,   -0.2
1999/07/24 15:00,    0.2,    1.4,    2.0,    4.3,    6.3,    8.9,    6.9,    8.5,    7.4,    5.6,    1.3,    1.1,    8.1,    3.4,   -1.5,    0.4,    0.1,   -2.8,    9.7,    6.0,   10.2,   10.2,  999.0,  999.0,  999.0,  999.0,  999.0,    0.0,  999.0,  999.0,  999.0,  999.0
1999/07/24 15:10,    1.5,    1.1,    2.2,    2.9,    3.0,    1.5,    3.8,    6.0,    8.2,    6.6,    8.4,    3.1,    3.5,    7.2,    4.3,    7.7,    9.0,  999.0,  999.0,  999.0,    1.9,  999.0,    5.7,    9.2,    5.2,   -0.9,   -1.7,    3.4,  999.0,  999.0,  999.0,  999.0
1999/07/24 15:20,   -1.7,    0.3,    1.6,    1.5,    3.1,    2.3,    2.9,    2.7,    5.5,    5.0,    2.8,    6.9,    7.2,    2.1,    2.1,    4.5,    5.7,  999.0,  999.0,  999.0,    5.1,  999.0,  999.0,  999.0,  999.0,  999.0,  999.0,  999.0,  999.0,  999.0,  999.0,    0.4
1999/07/24 15:30,   -1.3,    0.7,    2.1,    3.3,    5.6,    6.0,    5.7,    5.8,   10.3,    8.6,    6.9,   11.0,   10.0,    9.4,   10.8,   13.3,    7.3,  999.0,   -0.3,   13.8,    5.3,    3.6,  999.0,    2.9,    2.1,    1.5,  999.0,    1.2,   -0.5,    0.3,    0.1,    0.7
1999/07/24 15:40,   -0.9,    1.0,    3.2,    5.4,    5.2,    5.0,    5.0,    6.4,    9.0,    8.8,    5.4,   12.8,   11.0,   18.6,   13.5,    3.6,    4.7,  999.0,  999.0,    9.3,  999.0,    1.2,   -3.4,   -1.7,    2.5,    2.3,  999.0,    5.6,  999.0,  999.0,  999.0,  999.0
1999/07/24 15:50,   -2.0,   -0.4,    1.0,    3.1,    4.5,    6.6,    4.8,    9.7,   11.0,    6.7,    6.3,    4.4,    3.9,    1.6,    1.2,    0.0,    0.9,    0.9,   -1.7,    3.5,    4.9,    3.7,    0.2,   -1.5,   -4.0,    1.0,    1.3,   -1.3,    2.1,    4.4,  999.0,    0.3
1999/07/24 16:00,   -0.5,    2.6,    2.1,    4.9,    4.2,    5.2,    4.6,    5.2,    5.2,    5.7,    2.1,    2.8,    1.0,   -0.1,   -2.1,   -2.1,   -2.7,   -4.9,   -3.4,    0.3,   -3.2,    2.0,   -0.8,   -0.3,    0.1,   -2.6,  999.0,  999.0,  999.0,  999.0,  999.0,  999.0
1999/07/24 16:10,   -0.5,    0.8,    1.5,    2.8,    3.4,    3.8,    5.4,    4.3,    2.2,    7.8,    5.5,   -1.0,    5.4,    7.2,    7.0,    3.7,    6.9,    5.5,    5.0,    0.6,    6.1,    3.7,    3.3,    9.6,    5.6,    5.0,    9.3,    7.1,    6.7,  999.0,  999.0,  999.0
1999/07/24 16:20,   30.9,  999.0,   14.8,    3.1,   45.0,   28.0,   33.6,   21.7,   20.6,   15.3,    4.1,   -2.7,   -2.6,   10.1,   36.1,  999.0,   34.0,  999.0,    9.7,    5.5,  999.0,  -16.2,  -15.4,  -15.8,  999.0,  -11.4,  999.0,  -15.9,  999.0,   -7.9,  -11.2,  -15.5
1999/07/24 16:30,   31.3,   17.4,   -1.9,   11.2,   13.0,    9.5,    9.9,    9.4,    0.3,   -0.3,    1.9,   -1.0,    1.0,    4.0,   -5.4,   -2.3,  -10.9,   -3.3,   -2.1,  -14.0,   -3.8,    3.6,   -9.0,  -10.0,   -9.5,    1.6,    5.7,  999.0,   17.7,    2.4,   13.3,   10.6
1999/07/24 16:40,   -5.9,   -5.3,    3.3,   -1.0,   -0.3,    0.1,   -0.2,   -0.8,   -3.7,   -3.2,   -2.6,   -0.8,    0.8,    8.7,  -22.0,  -12.4,  -11.7,   -2.9,  -13.4,    0.7,   12.1,   -2.6,   -1.7,   -9.8,  -13.8,   -2.7,    2.3,   -7.3,   -8.5,   -1.1,  -18.3,  999.0
1999/07/24 16:50,    3.2,   12.2,   -0.9,   -1.3,    0.3,    1.8,    0.8,    0.3,    2.4,    2.7,   -0.3,    1.9,    1.1,   -0.1,   -3.0,   -1.0,   -1.5,    3.2,   -0.9,    6.6,    6.5,    4.8,    7.1,   12.2,    9.7,    6.0,    8.7,   -4.6,    5.6,   -5.3,    0.7,   10.1
1999/07/24 17:00,   -0.5,    4.2,    8.1,    8.3,    9.2,    9.8,    8.8,    7.9,    5.6,    6.2,    5.1,    5.7,    6.3,  999.0,  999.0,  999.0,  999.0,   -4.4,    3.4,    5.0,   10.8,    9.2,    9.2,    8.4,    3.4,    1.8,    0.8,    2.9,    2.8,    9.6,    8.2,    7.0
1999/07/24 17:10,    1.7,    3.6,    4.0,    3.1,    4.5,    4.4,    5.3,    4.2,    4.8,    4.1,    6.3,    7.6,    7.0,    6.0,    6.0,    5.7,    6.6,    6.7,    4.4,    2.3,    3.8,    3.2,    2.0,    3.4,    0.5,    0.7,    1.6,    1.0,    0.1,  999.0,    5.3,  999.0
1999/07/24 17:20,   -0.9,    3.2,    4.6,    5.1,    4.7,    4.0,    2.9,    3.8,    2.2,    4.3,    4.3,    5.6,    6.0,    6.2,    6.2,    6.5,    7.6,    7.3,    7.7,  999.0,    7.3,    7.2,    6.6,    3.8,    2.6,  999.0,    1.9,   -0.9,  999.0,   -0.3,  999.0,  999.0
1999/07/24 17:30,    2.5,    4.6,    4.1,    4.6,    4.1,    3.3,    3.4,    4.3,    4.9,    4.8,    5.6,    6.3,    5.9,    4.7,    3.7,    4.7,    6.0,    6.0,    6.0,    5.3,    5.5,  999.0,  999.0,  999.0,  999.0,  999.0,  999.0,    5.6,  999.0,  999.0,    2.9,  999.0
1999/07/24 17:40,    2.6,    4.0,    4.1,    4.6,    5.0,    4.4,    3.9,    4.2,    2.9,    1.8,    2.7,    3.6,    4.2,    4.1,    5.3,    4.9,    4.9,    5.7,    5.2,    7.1,    5.7,    7.0,  999.0,  999.0,  999.0,  999.0,  999.0,  999.0,   -0.8,  999.0,  999.0,  999.0
1999/07/24 17:50,    3.1,    2.6,    3.6,    5.2,    5.3,    4.8,    5.2,    5.3,    4.8,    3.7,    3.7,    3.5,    5.1,    5.0,    4.7,    3.3,    5.1,    5.2,  999.0,  999.0,  999.0,  999.0,    6.3,  999.0,  999.0,  999.0,  999.0,   -1.1,   -0.8,   -0.4,  999.0,   -0.5
1999/07/24 18:00,    2.4,    3.1,    3.6,    4.4,    5.4,    4.9,    4.4,    3.3,    2.3,    2.1,    2.8,    4.4,    4.8,    6.2,    4.8,    4.0,    5.9,    6.5,  999.0,  999.0,  999.0,  999.0,    6.1,  999.0,  999.0,   -0.5,  999.0,    7.6,  999.0,  999.0,  999.0,  999.0
1999/07/24 18:10,    0.9,    2.2,    2.5,    4.4,    5.0,    5.6,    3.5,    3.1,    2.4,    2.5,    4.0,    4.9,    5.5,    6.7,    5.3,    5.7,    6.9,    7.2,  999.0,  999.0,  999.0,  999.0,  999.0,  999.0,  999.0,  999.0,  999.0,  999.0,  999.0,  999.0,  999.0,  999.0
1999/07/24 18:20,    1.2,    2.0,    2.7,    3.5,    3.1,    2.8,    2.1,    1.2,    0.4,    1.0,    2.2,    3.2,    5.8,    6.4,    4.9,    5.8,    6.6,    7.7,  999.0,  999.0,  999.0,  999.0,  999.0,    7.0,  999.0,    7.1,  999.0,    8.0,  999.0,  999.0,  999.0,  999.0
1999/07/24 18:30,    1.1,    1.0,    2.2,    4.2,    4.0,    3.1,    1.9,    0.9,    1.5,    2.3,    3.3,    4.0,    6.4,    5.8,    5.6,    6.6,    7.4,  999.0,  999.0,  999.0,  999.0,  999.0,  999.0,  999.0,  999.0,    6.7,  999.0,   -1.7,  999.0,  999.0,  999.0,  999.0
1999/07/24 18:40,    1.3,    2.2,    2.0,    4.4,    5.6,    4.2,    3.2,    1.5,    1.1,    0.9,    2.1,    3.4,    4.5,    5.3,    4.8,    5.4,    6.4,  999.0,  999.0,  999.0,  999.0,  999.0,  999.0,  999.0,  999.0,  999.0,  999.0,    8.8,  999.0,  999.0,  999.0,  999.0
1999/07/24 18:50,   -1.3,    0.7,    2.1,    3.7,    4.7,  999.0,    3.2,    1.2,    0.2,   -0.1,    1.3,    2.4,    3.8,    4.8,    4.7,    5.6,    6.4,  999.0,  999.0,  999.0,  999.0,  999.0,  999.0,  999.0,  999.0,  999.0,  999.0,    9.7,  999.0,   -2.2,  999.0,  999.0
1999/07/24 19:00,    0.3,    1.8,    2.7,    3.2,    3.4,    2.5,    0.8,    0.3,   -0.6,   -0.7,    0.3,    1.5,    3.3,    5.4,    5.0,    5.4,    6.3,    7.2,  999.0,  999.0,  999.0,  999.0,  999.0,    7.0,  999.0,  999.0,  999.0,    8.4,  999.0,  999.0,  999.0,  999.0
1999/07/24 19:10,   -0.5,    0.9,    2.2,    2.8,    2.5,    2.0,    0.6,    0.3,   -1.0,    0.1,    0.6,    1.1,    2.4,    4.6,    4.5,    5.0,    6.1,    6.7,  999.0,    8.3,    7.3,  999.0,  999.0,    7.6,  999.0,  999.0,    9.8,   11.6,  999.0,  999.0,  999.0,  999.0
1999/07/24 19:20,    1.2,  999.0,  999.0,  999.0,    2.5,    1.7,    1.0,    0.2,   -0.3,   -0.2,    0.2,    2.2,    3.2,    5.3,    4.9,    6.2,    5.8,    6.4,  999.0,    8.6,    8.8,  999.0,    7.7,    8.0,  999.0,  999.0,    8.8,  999.0,  999.0,  999.0,  999.0,  999.0
1999/07/24 19:30,    0.5,    0.2,  999.0,  999.0,  999.0,    1.1,    0.6,    0.1,   -1.2,   -0.7,    1.1,    1.8,    4.3,    5.5,    6.5,    6.8,    7.2,  999.0,    7.1,    8.8,    9.3,  999.0,    9.0,    8.5,    8.4,  999.0,    9.7,    6.5,  999.0,  999.0,  999.0,   -0.1
1999/07/24 19:40,  999.0,    0.4,    0.8,    0.6,  999.0,    1.9,   -0.1,   -1.3,   -1.6,    0.3,    1.1,    1.5,    3.0,    5.1,    5.6,    6.4,    6.1,  999.0,  999.0,    8.4,    8.7,  999.0,    9.2,    8.1,    8.0,    8.5,    9.4,    9.4,  999.0,  999.0,  999.0,  999.0
1999/07/24 19:50,    0.1,   -0.2,    0.1,    0.3,    0.4,    0.2,   -0.3,    0.1,    0.1,    1.2,    2.1,    3.0,    5.3,    6.4,    7.8,    7.5,    7.1,    6.9,    8.0,    9.1,    9.3,    9.1,    9.1,  999.0,    9.0,    9.5,   10.7,   10.8,  999.0,  999.0,  999.0,  999.0
1999/07/24 20:00,    0.6,  999.0,    0.8,    0.4,    1.4,    1.2,   -0.1,   -0.0,    1.4,  999.0,    1.9,    3.2,    4.8,    6.3,    7.2,    8.3,    7.6,  999.0,    8.7,    8.2,    8.1,    7.7,    7.8,  999.0,    7.5,    8.4,    8.9,    9.8,  999.0,  999.0,  999.0,  999.0
1999/07/24 20:10,    0.3,  999.0,  999.0,    2.4,    2.8,    1.9,   -0.4,   -1.7,  999.0,  999.0,    0.9,    1.9,    4.6,    6.2,    6.7,    7.4,    6.5,    7.5,    7.7,  999.0,  999.0,  999.0,  999.0,  999.0,    9.3,    9.6,    9.3,    9.5,  999.0,  999.0,  999.0,  999.0
1999/07/24 20:20,    0.0,    0.9,  999.0,    0.9,    0.7,  999.0,    1.3,  999.0,  999.0,  999.0,    0.9,  999.0,    2.8,    5.0,    5.3,    5.5,    5.8,    6.2,    6.8,    8.0,  999.0,  999.0,  999.0,  999.0,    8.5,   11.1,  999.0,  999.0,   13.1,  999.0,  999.0,  999.0
1999/07/24 20:30,  999.0,    0.7,  999.0,   -0.3,   -0.2,   -0.5,   -0.5,  999.0,  999.0,   -0.9,   -0.3,    1.5,    2.8,    4.2,    4.8,    3.8,    4.4,    5.2,    6.6,  999.0,  999.0,  999.0,  999.0,  999.0,  999.0,    8.1,  999.0,    9.6,  999.0,  999.0,  999.0,  999.0
1999/07/24 20:40,  999.0,  999.0,    2.1,  999.0,    0.7,    0.1,   -0.8,   -0.9,   -2.5,  999.0,   -0.8,    0.7,    1.6,    3.8,    5.4,    3.8,    4.6,    5.4,    6.8,    7.7,  999.0,  999.0,    8.6,  999.0,  999.0,    8.7,  999.0,  999.0,   11.8,  999.0,  999.0,  999.0
1999/07/24 20:50,    0.6,  999.0,  999.0,    0.3,   -0.2,   -0.5,   -0.4,   -0.4,   -0.1,    0.2,    0.6,  999.0,    2.3,  999.0,  999.0,    5.3,    4.3,    4.5,    6.0,    5.9,  999.0,  999.0,  999.0,  999.0,    7.3,  999.0,  999.0,  999.0,  999.0,  999.0,  999.0,  999.0
1999/07/24 21:00,   -0.1,    0.5,    1.0,    0.5,    0.5,    1.0,    3.6,    3.0,    1.1,    1.0,    1.6,    2.6,    3.7,    4.1,    4.5,    3.4,    4.6,    5.0,    6.1,    6.8,  999.0,    7.0,    7.1,  999.0,  999.0,    8.2,  999.0,  999.0,    9.4,   10.4,   10.3,  999.0
1999/07/24 21:10,  999.0,  999.0,  999.0,    1.3,    0.1,   -0.5,   -1.0,   -0.7,   -0.8,    0.3,    1.5,    2.6,    2.4,    3.6,    4.9,    5.1,    5.8,    6.3,    7.0,    7.4,  999.0,    8.2,    7.9,  999.0,  999.0,  999.0,  999.0,  999.0,   10.4,   10.2,   10.7,   10.4
1999/07/24 21:20,  999.0,  999.0,  999.0,    1.1,    0.7,   -0.2,    0.2,    0.3,   -0.5,  999.0,    2.3,  999.0,    3.1,    2.9,    3.6,    4.1,    5.0,    5.4,    5.8,    5.6,  999.0,    6.6,    7.0,    8.0,  999.0,    9.2,  999.0,  999.0,    9.9,   10.7,    9.2,    9.7
1999/07/24 21:30,    0.8,    2.0,    1.5,    0.5,   -0.6,   -0.6,  999.0,   -0.2,    0.4,  999.0,    4.2,  999.0,    3.9,    5.0,    5.2,    5.1,  999.0,    6.1,    6.2,    5.5,    4.7,    6.0,    6.1,    6.2,    6.8,    7.2,  999.0,    8.7,   10.0,   10.9,   11.0,   11.8
1999/07/24 21:40,    0.4,    0.8,    0.6,   -0.3,   -0.7,  999.0,   -0.1,   -0.1,    2.0,  999.0,  999.0,  999.0,    3.6,    5.7,  999.0,    5.8,    6.2,    6.8,    6.6,    6.4,  999.0,    7.3,  999.0,    8.0,  999.0,  999.0,  999.0,  999.0,   10.5,   11.3,   11.7,   11.6
1999/07/24 21:50,    1.9,    1.7,    1.2,   -0.1,   -0.3,  999.0,   -0.7,  999.0,    1.1,    3.5,  999.0,  999.0,    2.7,    3.8,  999.0,    5.0,  999.0,    6.0,    5.7,    5.7,    6.4,    6.8,  999.0,  999.0,  999.0,  999.0,  999.0,  999.0,   10.4,   11.5,   10.7,   10.5
1999/07/24 22:00,    1.5,    0.9,  999.0,  999.0,    0.9,    0.0,   -0.1,  999.0,    1.7,    4.6,  999.0,  999.0,    3.4,    4.5,    4.1,  999.0,    5.3,  999.0,  999.0,    5.0,    6.0,    6.7,    7.5,  999.0,    8.4,    9.2,    9.2,    9.3,    9.4,    9.7,    9.7,    8.6
1999/07/24 22:10,    2.3,    2.8,    2.8,    1.6,    0.7,    0.1,   -0.1,    1.1,    1.6,    2.7,    2.8,  999.0,    2.2,  999.0,  999.0,    3.8,    3.4,  999.0,    4.1,    4.3,    5.7,    6.5,  999.0,    7.2,    8.2,    9.1,    9.2,   10.7,  999.0,  999.0,  999.0,    9.6
1999/07/24 22:20,    4.0,  999.0,  999.0,    2.0,  999.0,  999.0,    1.7,    1.5,  999.0,  999.0,  999.0,  999.0,    2.3,  999.0,  999.0,    3.8,  999.0,    4.7,  999.0,    6.1,    6.3,    6.5,  999.0,    7.2,    8.4,    9.0,  999.0,   10.2,  999.0,   10.2,   10.0,    8.5
1999/07/24 22:30,    3.3,    4.1,    3.2,    2.0,  999.0,  999.0,    1.8,  999.0,  999.0,    2.4,  999.0,  999.0,  999.0,    3.5,  999.0,    4.6,    4.3,    5.1,    5.9,    6.4,    7.3,  999.0,    7.9,    8.0,    7.8,    7.5,  999.0,    7.8,    8.3,    8.9,    9.0,    9.2
1999/07/24 22:40,    3.6,  999.0,    3.5,    3.9,  999.0,    3.5,    2.4,    0.8,  999.0,    2.3,  999.0,  999.0,  999.0,    3.0,  999.0,    3.8,    4.0,  999.0,  999.0,    5.9,  999.0,    6.4,    7.1,    7.8,    7.8,  999.0,    9.6,  999.0,   11.1,   10.7,   11.8,   11.3
1999/07/24 22:50,    4.4,    4.3,  999.0,  999.0,  999.0,    3.2,    2.2,    1.4,    2.6,    2.5,    1.7,    1.4,    2.8,    3.7,    4.5,    4.6,    4.9,    5.0,    5.5,    6.9,    8.0,    8.8,    9.0,    8.6,    9.3,   10.0,   10.0,    9.7,   10.5,   11.6,   11.7,   11.7
1999/07/24 23:00,    5.2,    4.1,    4.2,  999.0,    4.5,    4.6,    3.7,  999.0,    3.0,  999.0,  999.0,    2.2,  999.0,    4.2,    4.9,    5.0,  999.0,    5.8,  999.0,    6.3,  999.0,    7.1,    7.5,  999.0,    8.0,    9.1,    9.1,    9.4,   11.0,  999.0,   12.6,   10.6
1999/07/24 23:10,    5.9,    5.1,  999.0,    4.0,    3.3,    3.5,  999.0,    0.7,  999.0,    2.3,  999.0,    1.7,  999.0,    3.7,    4.6,    4.5,    4.7,    5.8,    5.6,    5.2,  999.0,    5.8,    5.7,    4.8,    5.5,    6.8,  999.0,  999.0,    7.9,    9.0,   10.1,    8.2
1999/07/24 23:20,    6.3,    5.1,  999.0,    3.2,    3.2,    2.2,  999.0,    0.6,    1.8,    2.3,    2.0,    2.9,  999.0,  999.0,    5.2,    5.8,  999.0,    5.6,    6.3,    7.2,  999.0,    7.3,    5.9,    6.2,    7.5,    9.1,    8.3,    8.6,    8.8,    9.7,    9.9,    9.0
1999/07/24 23:30,    5.9,    4.9,    4.3,  999.0,  999.0,  999.0,  999.0,  999.0,    2.2,    3.8,    3.6,  999.0,    4.8,    5.1,    6.8,    6.5,    6.3,    6.3,    7.7,    7.2,  999.0,    7.3,    7.6,    7.6,    8.6,    8.9,    8.4,  999.0,    7.9,    8.1,    8.8,    9.5
1999/07/24 23:40,    6.4,    4.7,    3.9,    4.1,    3.6,  999.0,  999.0,  999.0,    2.2,  999.0,    4.1,    4.6,    4.9,    4.9,    6.6,  999.0,    6.7,    6.3,    6.8,    7.1,    7.1,    7.3,    8.0,    8.6,    9.5,    9.0,    8.0,    7.2,    8.3,    7.0,    8.0,    9.0
1999/07/24 23:50,    6.2,    5.7,    4.6,    4.7,    4.4,  999.0,  999.0,    2.9,    2.4,  999.0,    5.3,    4.1,  999.0,    6.4,    7.1,    7.0,    7.1,    7.1,    7.1,    7.6,    6.9,    7.6,    9.0,    9.4,   10.8,   10.2,   10.3,  999.0,   10.1,   11.3,   11.4,   11.4
